This is the latest recevied weather packets stored in our database for station/object K4AMF. If no packets are shown the sender has not sent any weather packets the latest 10 day(s).
| Time | Temp. | Humidity | Pressure | Rain* | Wind** | Luminosity | Snow |
|---|---|---|---|---|---|---|---|
| 1777750196 | 20.56° C | 94% | 1010.7 hPa | 0 mm | - | 98 W/m² | - |
| 1777749893 | 20.56° C | 94% | 1010.5 hPa | 0 mm | - | 69 W/m² | - |
| 1777749590 | 20.56° C | 94% | 1010.5 hPa | 0 mm | - | 68 W/m² | - |
| 1777749288 | 20.56° C | 94% | 1010.4 hPa | 0 mm | - | 74 W/m² | - |
| 1777748985 | 20.56° C | 94% | 1010.5 hPa | 0 mm | - | 77 W/m² | - |
| 1777748682 | 20.56° C | 95% | 1010.3 hPa | 0 mm | - | 112 W/m² | - |
| 1777748378 | 20° C | 95% | 1010.6 hPa | 0 mm | - | 124 W/m² | - |
| 1777748074 | 20.56° C | 96% | 1010.7 hPa | 0 mm | - | 130 W/m² | - |
| 1777747771 | 20.56° C | 96% | 1010.7 hPa | 0 mm | - | 99 W/m² | - |
| 1777747163 | 20° C | 97% | 1009.7 hPa | 0 mm | - | 270 W/m² | - |
| 1777746859 | 20° C | 97% | 1010.1 hPa | 0 mm | - | 314 W/m² | - |
| 1777746555 | 20° C | 97% | 1010.3 hPa | 0 mm | - | 315 W/m² | - |
| 1777745947 | 19.44° C | 98% | 1010.5 hPa | 0 mm | - | 282 W/m² | - |
| 1777745344 | 19.44° C | 98% | 1010.2 hPa | 0 mm | - | 292 W/m² | - |
| 1777744738 | 19.44° C | 98% | 1010.3 hPa | 0 mm | - | 202 W/m² | - |
| 1777744128 | 19.44° C | 98% | 1010.6 hPa | 0 mm | - | 100 W/m² | - |
| 1777743521 | 18.89° C | 98% | 1011.1 hPa | 0 mm | - | 246 W/m² | - |
| 1777742309 | 18.89° C | 98% | 1010.8 hPa | 0 mm | - | 42 W/m² | - |
| 1777741703 | 18.89° C | 98% | 1011 hPa | 0 mm | - | 40 W/m² | - |
| 1777739276 | 21.67° C | 99% | 1010.9 hPa | 1.78 mm | - | 125 W/m² | - |
| 1777738669 | 21.11° C | 98% | 1010.3 hPa | 6.1 mm | - | 79 W/m² | - |
| 1777738058 | 21.11° C | 98% | 1010.5 hPa | 3.56 mm | - | 69 W/m² | - |
| 1777737757 | 21.11° C | 98% | 1010.4 hPa | 1.78 mm | - | 55 W/m² | - |
| 1777736848 | 21.11° C | 98% | 1010.5 hPa | 0 mm | - | 105 W/m² | - |
| 1777736235 | 21.11° C | 98% | 1010.3 hPa | 1.27 mm | - | 139 W/m² | - |
* Rain latest hour (hover to see other rain measurements)
** Current wind speed in m/s (hover to see current wind gust speed)